Regional Weather Roundup
Issued by NWS

Home | Current Version | Previous Version | Text Only | Print | Product List | Glossary Off
Versions: 1 2 3 4 5 6 7 8 9 10 11 12 13 14 15 16 17 18 19 20 21 22 23 24 25 26 27 28 29 30 31 32 33 34 35 36 37 38 39 40 41 42 43 44 45 46 47 48 49 50

000
ASUS43 KMPX 180701
RWRMN
WEATHER ROUNDUP FOR MINNESOTA
NATIONAL WEATHER SERVICE TWIN CITIES/CHANHASSEN MN
100 AM CST MON DEC 18 2017


NOTE: "FAIR" INDICATES FEW OR NO CLOUDS BELOW 12,000 FEET WITH NO
SIGNIFICANT WEATHER AND/OR OBSTRUCTIONS TO VISIBILITY. N/A MEANS
CURRENT SKY AND/OR WEATHER CONDITIONS ARE NOT AVAILABLE.

MNZ060>063-068>070-180800-
   Twin Cities Metro

CITY           SKY/WX    TMP DP  RH WIND       PRES   REMARKS
TWIN CITIES    CLOUDY    26  26 100 SW5       29.92F FOG     WCI  20
ST PAUL        CLOUDY    26  25  96 S6        29.93F FOG     WCI  19
CRYSTAL        CLOUDY    26  21  81 S7        29.90F HAZE    WCI  18
BLAINE         CLOUDY    28  28 100 CALM      29.90F FOG
LAKEVILLE        N/A     25  25 100 CALM      29.91F FOG
EDEN PRAIRIE   CLOUDY    26  24  92 SW6       29.90F FOG     WCI  19
SOUTH ST PAUL  CLOUDY    27  26  98 SW5       29.91F FOG     WCI  22
LAKE ELMO      CLOUDY    27  27 100 S6        29.91F FOG     WCI  20
$$
MNZ001>005-007-008-013>017-022>024-027-028-180800-
   Northwest Minnesota

CITY           SKY/WX    TMP DP  RH WIND       PRES   REMARKS
BEMIDJI        CLOUDY    26  25  96 S7        29.75F WCI  18
HALLOCK        CLOUDY    28  25  86 S14       29.64F WCI  17
ROSEAU         CLOUDY    28  25  86 S17       29.65F WCI  16
WARROAD        CLOUDY    27  25  93 S12G21    29.65F WCI  16
CROOKSTON      CLOUDY    30  30 100 S15       29.71F FOG     WCI  19
FOSSTON        CLOUDY    27  27 100 S10       29.73F FOG     WCI  17
DETROIT LAKES  PTCLDY    28  28 100 S8        29.77F FOG     WCI  20
MOORHEAD       CLOUDY    28  27  93 S10       29.77F WCI  19
PARK RAPIDS    CLOUDY    26  24  92 S7        29.77F FOG     WCI  18
MAHNOMEN       CLOUDY    28  28  98 S13       29.75F WCI  18
$$
MNZ006-009>011-018-025>026-180800-
   North Central Minnesota

CITY           SKY/WX    TMP DP  RH WIND       PRES   REMARKS
BAUDETTE       CLOUDY    24  21  88 S14G23    29.69F WCI  12
FLAG ISLAND    CLOUDY    21  19  93 S9        29.63F WCI  11
INTL FALLS     CLOUDY    25  22  88 S6        29.74F FOG     WCI  18
WASKISH        CLOUDY    27  25  93 S8        29.73F WCI  18
BIG FORK       CLOUDY    27  23  86 S6        29.77F WCI  20
LONGVILLE      CLOUDY    25  25 100 S5        29.80F FOG     WCI  19
GRAND RAPIDS   CLOUDY    26  25  96 S8        29.82F WCI  18
CRANE LAKE     CLOUDY    23  21  93 S3        29.81F
ORR            CLOUDY    23  21  93 S5        29.76F WCI  17
COOK           CLOUDY    25  21  86 S6        29.80F WCI  18
WALKER         CLOUDY    27  25  95 SW8       29.77F WCI  18
$$
MNZ012-019>021-037-180800-
   Northeast Minnesota

CITY           SKY/WX    TMP DP  RH WIND       PRES   REMARKS
DULUTH         CLOUDY    23  23 100 SW9       29.83F FOG     WCI  13
ELY            CLOUDY    23  21  93 SW6       29.79F WCI  16
HIBBING        CLOUDY    25  24  96 S6        29.81F WCI  18
EVELETH        CLOUDY    24  21  90 SW8       29.82F WCI  15
DULUTH HARBOR  CLOUDY    27  25  93 SW12      29.89F WCI  16
TWO HARBORS    CLOUDY    28  23  80 SW10      29.83F WCI  19
SILVER BAY     CLOUDY    25  25 100 SW6       29.82F WCI  18
GRAND MARAIS     N/A     25  22  88 VRB7      29.85F WCI  17
G MARAIS ARPRT FOG       18  12  79 CALM      29.78F VSB 1/2
$$
MNZ029>031-032-039>041-046>048-054>057-064-180800-
   West Central Minnesota

CITY           SKY/WX    TMP DP  RH WIND       PRES   REMARKS
FERGUS FALLS   CLOUDY    28  28 100 S9        29.82F FOG     WCI  20
WHEATON        MOCLDY    34  30  86 S8        29.82F WCI  27
MORRIS         CLOUDY    28  28 100 S7        29.81F FOG     WCI  21
ALEXANDRIA     CLOUDY    28  26  92 S8        29.82F WCI  20
ELBOW LAKE     FAIR      28  27  97 S10       29.81F FOG     WCI  18
WADENA         CLOUDY    25  25 100 S7        29.79F FOG     WCI  17
GLENWOOD       CLOUDY    27  27 100 S6        29.83F FOG     WCI  20
APPLETON       CLOUDY    34  28  80 S6        29.83F WCI  29
BENSON         CLOUDY    30  27  86 S7        29.85F WCI  23
ORTONVILLE     CLOUDY    32  28  86 S7        29.82F WCI  26
MADISON        CLOUDY    36  30  80 S8        29.83F
WILLMAR        MOCLDY    28  27  93 SE5       29.87F WCI  23
$$
MNZ033>034-036-042>043-049>051-058-059-180800-
   Central Minnesota

CITY           SKY/WX    TMP DP  RH WIND       PRES   REMARKS
ST CLOUD       CLOUDY    24  21  88 S6        29.87F WCI  17
SAUK CENTRE    PTSUNNY   26  24  91 S7        29.84F FOG     WCI  19
PAYNESVILLE    CLOUDY    28  26  91 S7        29.86F WCI  21
AITKIN         CLOUDY    23  19  86 S5        29.82F WCI  17
PINE RIVER     CLOUDY    23  21  93 S6        29.84F FOG     WCI  16
BRAINERD       CLOUDY    25  20  81 S8        29.83F HAZE    WCI  16
STAPLES        CLOUDY    23  23 100 S6        29.80F FOG     WCI  16
LONG PRAIRIE   MOCLDY    27  23  86 SE6       29.83F FOG     WCI  20
LITTLE FALLS   CLOUDY    25  19  80 SE5       29.86F WCI  19
LITCHFIELD     CLOUDY    28  27  93 CALM      29.88F
BUFFALO        CLOUDY    26  23  91 CALM      29.90F FOG
MAPLE LAKE     CLOUDY    27  25  94 S3        29.89F FOG
HUTCHINSON     CLOUDY    27  26  93 CALM      29.90F
$$
MNZ037-044-045-052-053-180800-
   East Central Minnesota

CITY           SKY/WX    TMP DP  RH WIND       PRES   REMARKS
PRINCETON      CLOUDY    25  21  86 S3        29.88F FOG
MORA           CLOUDY    19  18  93 CALM      29.90S
CAMBRIDGE      CLOUDY    25  21  86 CALM      29.90F FOG
RUSH CITY      CLOUDY    23  22  95 CALM      29.90S FOG
MOOSE LAKE     CLOUDY    25  21  86 CALM      29.84F
HINCKLEY       CLOUDY    23  21  93 CALM      29.89S FOG
CLOQUET        CLOUDY    25  21  86 S3        29.84F FOG
MCGREGOR       CLOUDY    27  21  80 S6        29.84F WCI  20
$$
MNZ071>073-080-081-089-090-097-098-180800-
   Southwest Minnesota

CITY           SKY/WX    TMP DP  RH WIND       PRES   REMARKS
MONTEVIDEO     CLOUDY    30  28  93 SW5       29.85F WCI  25
GRANITE FALLS  CLOUDY    32  29  88 S7        29.89F WCI  26
CANBY          CLOUDY    37  29  75 SW8       29.85F
MARSHALL       CLOUDY    33  27  78 S9        29.86F WCI  25
REDWOOD FALLS  CLOUDY    30  27  88 S6        29.88F WCI  24
OLIVIA         CLOUDY    30  27  86 S3        29.87F
PIPESTONE      CLOUDY    30  27  86 SW7       29.85F WCI  23
WINDOM           N/A     28  18  64 SW3       29.89F HAZE
WORTHINGTON    CLOUDY    29  27  92 SW8       29.90F WCI  21
JACKSON        CLOUDY    30  27  86 SW8       29.90F FOG     WCI  23
SLAYTON        CLOUDY    30  28  91 SW9       29.89F WCI  22
$$
MNZ065>067-074>077-082>085-091>093-180800-
   South Central Minnesota

CITY           SKY/WX    TMP DP  RH WIND       PRES   REMARKS
MANKATO        CLOUDY    26  24  92 S6        29.91F FOG     WCI  19
NEW ULM        CLOUDY    27  21  80 CALM      29.90F
ST JAMES       CLOUDY    27  25  93 CALM      29.91F
FAIRMONT       CLOUDY    27  25  92 SW7       29.92F WCI  19
GLENCOE        CLOUDY    27  27 100 S5        29.90F FOG     WCI  22
FARIBAULT      CLOUDY    27  27 100 SW3       29.91F FOG
OWATONNA       CLOUDY    28  27  93 SW5       29.90F FOG     WCI  23
WASECA         CLOUDY    27  27 100 SW3       29.92F FOG
ALBERT LEA     CLOUDY    28  27  93 SW5       29.91F FOG     WCI  23
$$
MNZ078>079-086>088-094>096-180800-
   Southeast Minnesota

CITY           SKY/WX    TMP DP  RH WIND       PRES   REMARKS
ROCHESTER      FOG       28  27  96 W8        29.90F VSB 3/4 WCI  20
RED WING       CLOUDY    28  25  86 CALM      29.92F FOG
STANTON        CLOUDY    29  27  93 W5        29.90F FOG     WCI  24
DODGE CENTER   FOG       28  27  93 SW6       29.90F VSB 1   WCI  22
WINONA         CLOUDY    30  30 100 CALM      29.94F FOG
AUSTIN         CLOUDY    27  27 100 SW3       29.90F FOG
PRESTON        FOG       28  27  96 W6        29.91F VSB 3/4 WCI  21
$$
ABBREVIATIONS USED IN REMARKS
   TC - TEMPERATURES IN CELSIUS
  WCI - WIND CHILL INDEX
   HX - HEAT INDEX
  VSB - VISIBILITY
$$




USA.gov is the U.S. government's official web portal to all federal, state and local government web resources and services.